ATLAS 5 CENTAUR DEB, 52974

Orbit data source: Space-Track

ATLAS 5 CENTAUR DEB, 52974 is space debris in HEO originally from a launch on Wed, 17 Oct 2018 UTC launched from the Air Force Eastern Test Range (AFETR). Debris objects in space refer to the collection of defunct objects orbiting the Earth. Examples of debris include non-operational satellites, rocket bodies, and fragments generated from explosions, collisions, or faulty payload assembly.

Loading next visibility...
Identifier
52974, 2018-079GY
Orbit
HEO
Country
Flag of USUS
Related business
Flag of USUnited Launch Alliance/Lockheed Martin (US)
Manufacturer
ULA Decatur
Mission
Spacecraft
Bus & Motor
Unknown
Mass
Unknown
Launch date (UTC)
2018-10-17 (7 years ago)
Launch vehicle
Unknown
Launch site
Air Force Eastern Test Range (AFETR)
Object type
Payload
Rocket body
Debris
Shape & HBR
Unknown shape, 1.1 m
Radar Cross Section
RCS unknown

Expand to show TLE details & history
Last TLE update: 2 weeks ago

TLE from 2 weeks ago
0 ATLAS 5 CENTAUR DEB
1 52974U 18079GY  25276.45835986 -.00000117  00000-0  00000-0 0  9992
2 52974  13.0810  49.2128 4717986 290.1150  26.2629  1.86122696 26509
Epoch: 2025-10-03T11:00Z
TLE epoch observation values (Epoch: 2025-10-03T11:00:02.291Z)
Latitude
0.00002°
Longitude
-128.17252°
Altitude
12,266.006 km
Speed
5.337 km/s
True Right ascension
03h 16m 57s
True Declination
0° 00' 00"
Sunlit
Object was in daylight at epoch
Visualization orbit readout
Latitude
Unknown
Longitude
Unknown
Altitude
Unknown
Speed
Unknown
Apparent Right ascension
Unknown
Apparent Declination
Unknown
Sunlit
N/A
Visualization observer readout
Local Sidereal Time
05:35:51
Azimuth
Unknown
Elevation
Unknown
Doppler factor
Unknown
Orbital elements
Apogee altitude
34,713.236 km
Perigee altitude
8,368.8 km
Semi-major axis
27,919.155 km
Eccentricity
0.4718
Inclination
13.081°
RAAN
49.2128°
Arg. of periapsis
290.115°
True anomaly
70.0681°
Mean anomaly
26.2629°
Eccentric anomaly
45.56503°
Mean motion
0.46525 °/min
Orbital period
773.77 mins
BSTAR
0
Loading maneuver chart data...
Computing Atmospheric mass density...

Documentation

Showing up to 5 results
|